User: anonymous   Login
Location: Caltech
(34.1382°N, 118.1253°W)
Time: 01:56:17
(UTC-08:00)
Language:

Cosmos 1484 Rocket - Orbit

View from above orbital plane
View from above orbital plane
View from above satellite
View from above satellite

Ground track
Ground track

The orbit data is extracted from the following two-line orbital elements,

1 14208U 83075B   17057.92444690 +.00000605 +00000-0 +40045-4 0  9994
2 14208 097.3446 073.0047 0040404 149.5403 210.8186 15.10274518830561
Epoch (UTC): 26 February 2017 22:11:12
Eccentricity: 0.0040404
inclination: 97.3446°
perigee height: 507 km
apogee height: 563 km
right ascension of ascending node: 73.0047°
argument of perigee: 149.5403°
revolutions per day: 15.10274518
mean anomaly at epoch: 210.8186°
orbit number at epoch: 83056

The dashed part of the orbit path shows where the satellite is in the earth's shadow,  

DLR